KB0UOA Weather Reports


time (UTC)temp
F
wind
direction
speed
knots
gust
knots
rain 1hr
in
rain 24hr
in
rain mn
in
humidity
%
barometer
mb
20260507180504 66 211 5.2 14.8 0.00 0.00 0.00 41 1014.5
20260507180404 66 211 5.2 14.8 0.00 0.00 0.00 42 1014.4
20260507180304 66 209 5.2 14.8 0.00 0.00 0.00 40 1014.5
20260507180205 66 210 5.2 14.8 0.00 0.00 0.00 41 1014.6
20260507180105 66 208 5.2 14.8 0.00 0.00 0.00 43 1014.5
20260507180004 66 208 5.2 14.8 0.00 0.00 0.00 42 1014.6
20260507175904 66 207 5.2 14.8 0.00 0.00 0.00 40 1014.6
20260507175804 66 205 4.3 14.8 0.00 0.00 0.00 40 1014.6
20260507175704 66 204 3.5 10.4 0.00 0.00 0.00 42 1014.6
20260507175504 66 206 3.5 9.6 0.00 0.00 0.00 40 1014.6
20260507175404 66 207 3.5 9.6 0.00 0.00 0.00 40 1014.7
20260507175204 66 204 3.5 9.6 0.00 0.00 0.00 42 1014.7
20260507175104 66 207 2.6 7.0 0.00 0.00 0.00 42 1014.7
20260507175004 66 206 3.5 7.8 0.00 0.00 0.00 42 1014.7
20260507174904 66 205 3.5 8.7 0.00 0.00 0.00 41 1014.7
20260507174804 66 207 3.5 8.7 0.00 0.00 0.00 40 1014.7
20260507174704 66 207 3.5 8.7 0.00 0.00 0.00 38 1014.7
20260507174504 66 203 4.3 9.6 0.00 0.00 0.00 43 1014.8
20260507174404 66 201 4.3 9.6 0.00 0.00 0.00 42 1014.9
20260507174204 65 203 4.3 9.6 0.00 0.00 0.00 42 1014.8
20260507174104 65 203 4.3 9.6 0.00 0.00 0.00 42 1014.9
20260507174004 66 208 3.5 9.6 0.00 0.00 0.00 43 1014.9
20260507173904 66 209 3.5 9.6 0.00 0.00 0.00 44 1015.0
20260507173804 66 212 3.5 9.6 0.00 0.00 0.00 43 1015.0
20260507173705 66 215 3.5 9.6 0.00 0.00 0.00 43 1015.0
20260507173604 66 215 3.5 7.8 0.00 0.00 0.00 43 1014.9
20260507173505 65 218 3.5 7.8 0.00 0.00 0.00 45 1015.0
20260507173404 65 224 2.6 7.8 0.00 0.00 0.00 45 1015.0
20260507173304 65 223 2.6 7.8 0.00 0.00 0.00 44 1015.0
20260507173204 65 223 2.6 7.8 0.00 0.00 0.00 43 1015.1
20260507173104 65 223 2.6 7.8 0.00 0.00 0.00 42 1015.1
20260507173004 65 219 3.5 8.7 0.00 0.00 0.00 43 1015.2
20260507172904 65 217 3.5 11.3 0.00 0.00 0.00 43 1015.2
20260507172704 65 213 4.3 11.3 0.00 0.00 0.00 42 1015.2
20260507172604 65 214 3.5 11.3 0.00 0.00 0.00 43 1015.3
20260507172504 65 209 3.5 11.3 0.00 0.00 0.00 44 1015.2
20260507172404 64 202 3.5 11.3 0.00 0.00 0.00 46 1015.2
20260507172307 64 199 4.3 11.3 0.00 0.00 0.00 44 1015.2
20260507172204 64 199 4.3 11.3 0.00 0.00 0.00 44 1015.4
20260507172104 64 199 5.2 11.3 0.00 0.00 0.00 43 1015.3
20260507171904 64 199 4.3 11.3 0.00 0.00 0.00 44 1015.4
20260507171804 64 196 3.5 11.3 0.00 0.00 0.00 47 1015.5
20260507171704 64 196 4.3 11.3 0.00 0.00 0.00 48 1015.4
20260507171604 64 197 4.3 11.3 0.00 0.00 0.00 46 1015.4
20260507171504 64 201 4.3 11.3 0.00 0.00 0.00 45 1015.4
20260507171404 64 205 4.3 11.3 0.00 0.00 0.00 46 1015.5
20260507171304 64 208 4.3 11.3 0.00 0.00 0.00 45 1015.5
20260507171204 64 206 4.3 11.3 0.00 0.00 0.00 46 1015.5
20260507171104 64 205 4.3 11.3 0.00 0.00 0.00 47 1015.5
20260507171005 63 206 4.3 11.3 0.00 0.00 0.00 46 1015.6
20260507170904 63 205 4.3 11.3 0.00 0.00 0.00 46 1015.6
20260507170804 63 206 5.2 11.3 0.00 0.00 0.00 45 1015.6
20260507170704 63 209 4.3 11.3 0.00 0.00 0.00 45 1015.7
20260507170604 63 212 4.3 11.3 0.00 0.00 0.00 46 1015.6
20260507170504 63 213 4.3 9.6 0.00 0.00 0.00 46 1015.7
20260507170404 63 211 5.2 11.3 0.00 0.00 0.00 45 1015.7
20260507170304 63 210 4.3 11.3 0.00 0.00 0.00 45 1015.7
20260507170204 63 210 4.3 11.3 0.00 0.00 0.00 47 1015.7
20260507170104 63 208 4.3 11.3 0.00 0.00 0.00 47 1015.8
20260507170004 63 208 4.3 11.3 0.00 0.00 0.00 47 1015.7
20260507165904 63 211 4.3 11.3 0.00 0.00 0.00 47 1015.7
20260507165804 63 209 4.3 11.3 0.00 0.00 0.00 48 1015.7
20260507165704 63 205 4.3 11.3 0.00 0.00 0.00 48 1015.7
20260507165604 63 205 4.3 11.3 0.00 0.00 0.00 48 1015.7
20260507165504 63 204 4.3 11.3 0.00 0.00 0.00 48 1015.8
20260507165306 62 202 4.3 9.6 0.00 0.00 0.00 49 1015.8
20260507165205 62 202 4.3 9.6 0.00 0.00 0.00 47 1015.8
20260507165004 62 202 4.3 12.2 0.00 0.00 0.00 48 1015.9
20260507164804 62 202 4.3 12.2 0.00 0.00 0.00 49 1016.0
20260507164704 62 205 4.3 12.2 0.00 0.00 0.00 49 1016.0
20260507164604 62 204 4.3 12.2 0.00 0.00 0.00 49 1016.1
20260507164504 62 208 4.3 12.2 0.00 0.00 0.00 49 1016.0
20260507164404 62 209 4.3 12.2 0.00 0.00 0.00 48 1016.0
20260507164303 62 214 4.3 12.2 0.00 0.00 0.00 48 1016.0
20260507164204 62 220 4.3 12.2 0.00 0.00 0.00 49 1016.0
20260507164104 62 223 3.5 8.7 0.00 0.00 0.00 49 1016.0
20260507164004 62 230 3.5 8.7 0.00 0.00 0.00 50 1016.0
20260507163704 62 226 4.3 12.2 0.00 0.00 0.00 51 1016.1
20260507163604 62 224 4.3 12.2 0.00 0.00 0.00 52 1016.1
20260507163503 62 218 4.3 12.2 0.00 0.00 0.00 52 1016.1
20260507163404 62 217 5.2 12.2 0.00 0.00 0.00 52 1016.1
20260507163304 61 218 5.2 12.2 0.00 0.00 0.00 51 1016.0
20260507163204 61 218 5.2 12.2 0.00 0.00 0.00 51 1016.0
20260507163104 62 217 5.2 12.2 0.00 0.00 0.00 50 1016.0
20260507163004 62 213 4.3 12.2 0.00 0.00 0.00 52 1016.1
20260507162904 62 212 4.3 12.2 0.00 0.00 0.00 52 1016.1
20260507162804 62 211 4.3 11.3 0.00 0.00 0.00 52 1016.0
20260507162703 61 211 4.3 11.3 0.00 0.00 0.00 52 1016.1
20260507162604 61 212 4.3 11.3 0.00 0.00 0.00 51 1016.2
20260507162504 61 215 4.3 9.6 0.00 0.00 0.00 51 1016.1
20260507162404 61 214 4.3 10.4 0.00 0.00 0.00 52 1016.1
20260507162306 61 215 4.3 10.4 0.00 0.00 0.00 53 1016.2
20260507162204 61 212 4.3 10.4 0.00 0.00 0.00 53 1016.2
20260507162104 61 212 4.3 10.4 0.00 0.00 0.00 52 1016.2
20260507162004 61 213 4.3 13.0 0.00 0.00 0.00 53 1016.2
20260507161903 61 212 4.3 13.0 0.00 0.00 0.00 52 1016.2
20260507161804 61 213 4.3 13.0 0.00 0.00 0.00 52 1016.2
20260507161604 61 215 4.3 13.0 0.00 0.00 0.00 53 1016.2
20260507161504 61 213 4.3 13.0 0.00 0.00 0.00 52 1016.2
20260507161404 61 214 5.2 13.0 0.00 0.00 0.00 53 1016.3
20260507161304 61 208 4.3 13.0 0.00 0.00 0.00 53 1016.3
20260507161204 61 207 5.2 13.0 0.00 0.00 0.00 53 1016.2
20260507161004 61 207 5.2 11.3 0.00 0.00 0.00 53 1016.4
20260507160904 60 211 5.2 11.3 0.00 0.00 0.00 54 1016.3
20260507160804 60 210 5.2 11.3 0.00 0.00 0.00 54 1016.4
20260507160604 60 215 5.2 13.0 0.00 0.00 0.00 54 1016.4
20260507160504 60 216 4.3 13.0 0.00 0.00 0.00 54 1016.3
20260507160404 60 217 4.3 13.0 0.00 0.00 0.00 54 1016.3
20260507160304 60 221 4.3 13.0 0.00 0.00 0.00 54 1016.4
20260507160204 60 224 4.3 13.0 0.00 0.00 0.00 54 1016.3
20260507160005 60 231 3.5 13.0 0.00 0.00 0.00 55 1016.3
20260507155904 60 231 3.5 13.0 0.00 0.00 0.00 54 1016.3
20260507155804 60 239 3.5 13.0 0.00 0.00 0.00 54 1016.3
20260507155705 60 235 3.5 7.8 0.00 0.00 0.00 56 1016.3
20260507155604 60 235 3.5 6.1 0.00 0.00 0.00 55 1016.2
20260507155507 60 235 3.5 6.1 0.00 0.00 0.00 57 1016.2
20260507001204 58 30 0.9 4.3 0.00 0.21 0.21 51 1016.9
20260507001104 58 29 0.9 4.3 0.00 0.21 0.21 50 1016.9
20260507001004 58 42 0.9 4.3 0.00 0.21 0.21 51 1017.0
20260507000904 58 43 0.9 4.3 0.00 0.21 0.21 51 1017.0
20260507000804 58 48 0.9 4.3 0.00 0.21 0.21 51 1017.0
20260507000705 58 43 0.9 4.3 0.00 0.21 0.21 51 1017.0
20260507000605 58 44 0.9 4.3 0.00 0.21 0.21 51 1017.0
20260507000505 58 40 1.7 5.2 0.00 0.21 0.21 51 1016.9
20260507000405 58 37 1.7 5.2 0.00 0.21 0.21 51 1016.9
20260507000306 58 20 1.7 5.2 0.00 0.21 0.21 50 1016.9
20260507000205 58 14 1.7 5.2 0.00 0.21 0.21 51 1016.8
20260507000105 58 9 2.6 5.2 0.00 0.21 0.21 50 1016.8
20260507000005 58 358 2.6 5.2 0.00 0.21 0.21 50 1016.8
20260506235904 58 347 2.6 7.0 0.00 0.21 0.21 49 1016.9
20260506235804 58 338 2.6 7.0 0.00 0.21 0.21 49 1016.9
20260506235704 58 335 2.6 7.0 0.00 0.21 0.21 49 1016.8
20260506235604 58 329 2.6 7.0 0.00 0.21 0.21 49 1016.9
20260506235504 58 327 2.6 7.0 0.00 0.21 0.21 50 1016.9
20260506235306 58 331 2.6 7.0 0.00 0.21 0.21 49 1016.9
20260506235204 58 332 2.6 7.0 0.00 0.21 0.21 49 1016.9
20260506235104 58 330 2.6 7.0 0.00 0.21 0.21 49 1016.9
20260506235004 58 333 2.6 7.0 0.00 0.21 0.21 49 1016.9
20260506234904 59 337 2.6 7.0 0.00 0.21 0.21 48 1016.9
20260506234705 59 339 2.6 7.8 0.00 0.21 0.21 50 1016.8
20260506234604 59 343 2.6 7.8 0.00 0.21 0.21 49 1016.8
20260506234505 59 342 2.6 7.8 0.00 0.21 0.21 49 1016.8
20260506234404 59 344 3.5 7.8 0.00 0.21 0.21 48 1016.8
20260506234304 59 344 3.5 7.8 0.00 0.21 0.21 47 1016.8
20260506234204 59 346 3.5 7.8 0.00 0.21 0.21 47 1016.8
20260506234105 59 354 2.6 7.8 0.00 0.21 0.21 47 1016.8
20260506234004 60 359 2.6 7.8 0.00 0.21 0.21 47 1016.8
20260506233904 60 4 2.6 7.8 0.00 0.21 0.21 47 1016.8
20260506233804 60 8 2.6 6.1 0.00 0.21 0.21 47 1016.8
20260506233705 60 16 2.6 6.1 0.00 0.21 0.21 47 1016.8
20260506233505 60 27 1.7 6.1 0.00 0.21 0.21 47 1016.8
20260506233405 60 31 1.7 6.1 0.00 0.21 0.21 49 1016.7
20260506233305 59 31 1.7 6.1 0.00 0.21 0.21 48 1016.7
20260506233105 59 13 1.7 6.1 0.00 0.21 0.21 48 1016.8
20260506233005 59 16 1.7 6.1 0.00 0.21 0.21 48 1016.8
20260506232905 59 28 1.7 6.1 0.00 0.21 0.21 49 1016.8
20260506232805 59 33 1.7 7.0 0.00 0.21 0.21 50 1016.7
20260506232705 59 34 1.7 7.0 0.00 0.21 0.21 49 1016.7
20260506232604 59 29 1.7 7.0 0.00 0.21 0.21 50 1016.7
20260506232504 59 29 2.6 7.0 0.00 0.21 0.21 49 1016.7
20260506232404 59 24 2.6 7.0 0.00 0.21 0.21 49 1016.7
20260506232306 58 22 2.6 7.0 0.00 0.21 0.21 49 1016.6
20260506232205 58 19 3.5 7.0 0.00 0.21 0.21 49 1016.6
20260506232104 58 18 3.5 7.0 0.00 0.21 0.21 49 1016.7
20260506232004 58 18 3.5 7.0 0.00 0.21 0.21 48 1016.7
20260506231904 58 13 3.5 7.0 0.00 0.21 0.21 48 1016.6
20260506231805 58 6 3.5 7.0 0.00 0.21 0.21 49 1016.6
20260506231605 59 9 3.5 7.0 0.00 0.21 0.21 48 1016.6
20260506231312 59 8 2.6 7.0 0.00 0.21 0.21 49 1016.6
20260506231205 59 11 2.6 7.0 0.00 0.21 0.21 48 1016.6
20260506231105 59 15 2.6 7.0 0.00 0.21 0.21 48 1016.6
20260506231005 59 20 2.6 7.0 0.00 0.21 0.21 48 1016.6
20260506230905 59 40 1.7 7.0 0.00 0.21 0.21 47 1016.6
20260506230705 60 64 1.7 6.1 0.00 0.21 0.21 48 1016.6
20260506230605 60 62 1.7 6.1 0.00 0.21 0.21 47 1016.6
20260506230505 60 63 1.7 6.1 0.00 0.21 0.21 47 1016.6
20260506230404 60 62 1.7 6.1 0.00 0.21 0.21 46 1016.6
20260506230304 60 49 1.7 6.1 0.00 0.21 0.21 46 1016.6
20260506230104 60 30 1.7 6.1 0.00 0.21 0.21 45 1016.6
20260506230005 60 19 1.7 5.2 0.00 0.21 0.21 46 1016.6
20260506225904 60 358 1.7 4.3 0.00 0.21 0.21 46 1016.6
20260506225805 60 1 1.7 4.3 0.00 0.21 0.21 47 1016.6
20260506225605 59 9 1.7 4.3 0.00 0.21 0.21 47 1016.6
20260506225505 60 358 1.7 4.3 0.00 0.21 0.21 46 1016.6
20260506225404 60 5 1.7 4.3 0.00 0.21 0.21 45 1016.6
20260506225306 60 30 1.7 7.0 0.00 0.21 0.21 46 1016.6
20260506225204 60 43 1.7 7.0 0.00 0.21 0.21 45 1016.6
20260506225104 60 51 1.7 7.0 0.00 0.21 0.21 46 1016.6
20260506225004 60 54 1.7 7.0 0.00 0.21 0.21 46 1016.6
20260506224904 60 54 1.7 7.0 0.00 0.21 0.21 45 1016.6
20260506224804 60 55 1.7 7.0 0.00 0.21 0.21 46 1016.6
20260506224705 60 49 1.7 7.0 0.00 0.21 0.21 45 1016.6
20260506224604 60 47 1.7 7.0 0.00 0.21 0.21 45 1016.5
20260506224504 60 52 1.7 7.0 0.00 0.21 0.21 45 1016.5
20260506224404 60 46 1.7 7.0 0.00 0.21 0.21 44 1016.5
20260506224304 60 47 1.7 4.3 0.00 0.21 0.21 44 1016.5
20260506224204 60 52 1.7 5.2 0.00 0.21 0.21 44 1016.5
20260506224104 60 56 1.7 7.8 0.00 0.21 0.21 44 1016.5
20260506224004 60 59 1.7 7.8 0.00 0.21 0.21 46 1016.5
20260506223904 60 46 1.7 7.8 0.00 0.21 0.21 46 1016.5
20260506223804 60 37 1.7 7.8 0.00 0.21 0.21 46 1016.4
20260506223604 60 42 1.7 7.8 0.00 0.21 0.21 46 1016.4
20260506223404 60 35 1.7 7.8 0.00 0.21 0.21 46 1016.4
20260506223304 60 34 2.6 7.8 0.00 0.21 0.21 45 1016.4
20260506223204 60 23 2.6 7.8 0.00 0.21 0.21 46 1016.4
20260506223104 60 18 2.6 7.0 0.00 0.21 0.21 45 1016.4
20260506223004 60 17 2.6 7.0 0.00 0.21 0.21 44 1016.4
20260506222904 60 26 2.6 7.0 0.00 0.21 0.21 45 1016.3
20260506222804 60 34 2.6 7.0 0.00 0.21 0.21 46 1016.4
20260506222704 60 40 2.6 7.0 0.00 0.21 0.21 46 1016.4
20260506222604 60 38 2.6 7.0 0.00 0.21 0.21 45 1016.4
20260506222306 60 55 1.7 6.1 0.00 0.21 0.21 45 1016.4
20260506222204 60 67 1.7 5.2 0.00 0.21 0.21 46 1016.4
20260506222004 60 80 1.7 5.2 0.00 0.21 0.21 45 1016.4
20260506221904 60 80 1.7 5.2 0.00 0.21 0.21 44 1016.4
20260506221804 60 77 1.7 4.3 0.00 0.21 0.21 45 1016.4
20260506221705 60 76 1.7 5.2 0.00 0.21 0.21 46 1016.4
20260506221604 60 73 1.7 5.2 0.00 0.21 0.21 46 1016.4
20260506221504 60 68 1.7 5.2 0.00 0.21 0.21 47 1016.4
20260506221404 60 66 1.7 5.2 0.00 0.21 0.21 46 1016.4
20260506221304 60 65 1.7 5.2 0.00 0.21 0.21 45 1016.4
20260506221204 60 65 1.7 5.2 0.00 0.21 0.21 45 1016.4
20260506221104 60 65 1.7 5.2 0.00 0.21 0.21 45 1016.4
20260506220904 60 46 1.7 5.2 0.00 0.21 0.21 46 1016.3
20260506220804 60 41 1.7 5.2 0.00 0.21 0.21 45 1016.4
20260506220704 60 31 1.7 6.1 0.00 0.21 0.21 46 1016.3
20260506220504 60 31 1.7 6.1 0.00 0.21 0.21 46 1016.3
20260506220404 60 32 1.7 6.1 0.00 0.21 0.21 46 1016.4
20260506220304 60 36 1.7 6.1 0.00 0.21 0.21 46 1016.4
20260506220204 59 39 2.6 6.1 0.00 0.21 0.21 45 1016.4
20260506220104 60 38 2.6 6.1 0.00 0.21 0.21 46 1016.4
20260506220004 60 46 2.6 9.6 0.00 0.21 0.21 45 1016.4
20260506215904 60 50 2.6 9.6 0.00 0.21 0.21 45 1016.4
20260506215704 60 62 2.6 9.6 0.00 0.21 0.21 46 1016.4
20260506215604 60 60 2.6 9.6 0.00 0.21 0.21 47 1016.4
20260506215504 60 61 2.6 9.6 0.00 0.21 0.21 47 1016.4
20260506215306 60 61 2.6 9.6 0.00 0.21 0.21 46 1016.5
20260506215104 60 70 2.6 9.6 0.00 0.21 0.21 47 1016.5
20260506215006 60 72 2.6 7.0 0.00 0.21 0.21 46 1016.5
20260506214904 60 68 2.6 7.0 0.00 0.21 0.21 47 1016.6
20260506214804 60 60 1.7 7.0 0.00 0.21 0.21 47 1016.6
20260506214704 60 53 2.6 7.0 0.00 0.21 0.21 47 1016.6
20260506214604 59 41 2.6 7.0 0.00 0.21 0.21 47 1016.5
20260506214505 59 32 2.6 7.0 0.00 0.21 0.21 46 1016.6
20260506214404 59 37 2.6 7.0 0.00 0.21 0.21 48 1016.6
20260506214204 59 359 2.6 5.2 0.00 0.21 0.21 47 1016.6
20260506214104 59 350 2.6 5.2 0.00 0.21 0.21 47 1016.6
20260506213904 60 347 2.6 5.2 0.00 0.21 0.21 47 1016.6
20260506213704 60 348 2.6 5.2 0.00 0.21 0.21 48 1016.6
20260506213604 60 354 2.6 6.1 0.00 0.21 0.21 46 1016.6
20260506213404 60 353 3.5 6.1 0.00 0.21 0.21 46 1016.7
20260506213304 60 348 3.5 6.1 0.00 0.21 0.21 45 1016.7
20260506213204 60 345 3.5 7.0 0.00 0.21 0.21 46 1016.6
20260506213104 60 342 3.5 7.0 0.00 0.21 0.21 46 1016.7
20260506212904 60 347 3.5 7.0 0.00 0.21 0.21 47 1016.7
20260506212804 60 356 3.5 7.8 0.00 0.21 0.21 46 1016.7
20260506212704 60 8 3.5 7.8 0.00 0.21 0.21 46 1016.7
20260506212504 61 14 2.6 7.8 0.00 0.21 0.21 47 1016.7
20260506212404 61 9 2.6 7.8 0.00 0.21 0.21 46 1016.7
20260506212306 61 15 2.6 7.8 0.00 0.21 0.21 46 1016.7
20260506212204 61 30 2.6 7.8 0.00 0.21 0.21 45 1016.7
20260506212104 61 39 2.6 7.8 0.00 0.21 0.21 45 1016.7
20260506212004 61 45 2.6 7.8 0.00 0.21 0.21 44 1016.7
20260506211904 61 43 1.7 7.8 0.00 0.21 0.21 44 1016.8
20260506211804 62 39 1.7 7.8 0.00 0.21 0.21 45 1016.8
20260506211704 62 5 1.7 7.8 0.00 0.21 0.21 45 1016.8
20260506211604 61 357 1.7 5.2 0.00 0.21 0.21 43 1016.8
20260506211504 61 355 1.7 5.2 0.00 0.21 0.21 44 1016.7
20260506211404 61 359 1.7 5.2 0.00 0.21 0.21 43 1016.7
20260506211304 61 359 2.6 7.0 0.00 0.21 0.21 45 1016.8
20260506211204 61 8 2.6 7.0 0.00 0.21 0.21 43 1016.7
20260506211005 61 4 2.6 7.0 0.00 0.21 0.21 44 1016.7
20260506210904 61 19 2.6 7.0 0.00 0.21 0.21 44 1016.8
20260506210804 61 34 2.6 7.0 0.00 0.21 0.21 44 1016.8
20260506210704 61 58 2.6 7.0 0.00 0.21 0.21 44 1016.7
20260506210604 61 70 2.6 7.0 0.00 0.21 0.21 44 1016.8
20260506210504 61 80 2.6 7.0 0.00 0.21 0.21 46 1016.8
20260506210404 61 85 2.6 7.0 0.00 0.21 0.21 46 1016.8
20260506210304 61 88 2.6 7.8 0.00 0.21 0.21 45 1016.8
20260506210204 61 82 2.6 11.3 0.00 0.21 0.21 46 1016.9
20260506210004 61 82 2.6 11.3 0.00 0.21 0.21 45 1016.8
20260506205704 61 78 2.6 11.3 0.00 0.21 0.21 45 1016.8
20260506205504 61 74 1.7 11.3 0.00 0.21 0.21 44 1016.9
20260506205404 61 71 1.7 11.3 0.00 0.21 0.21 44 1016.9
20260506205306 62 71 1.7 11.3 0.00 0.21 0.21 45 1016.9
20260506205105 62 78 1.7 6.1 0.00 0.21 0.21 46 1016.9
20260506205004 61 72 1.7 6.1 0.00 0.21 0.21 45 1016.9
20260506204905 61 75 1.7 6.1 0.00 0.21 0.21 47 1016.9
20260506204705 61 77 1.7 6.1 0.00 0.21 0.21 44 1017.0
20260506204604 61 78 1.7 6.1 0.00 0.21 0.21 45 1017.1
20260506204404 60 82 2.6 7.0 0.00 0.21 0.21 45 1017.0
20260506204304 60 83 2.6 8.7 0.00 0.21 0.21 46 1017.1
20260506204204 60 86 3.5 11.3 0.00 0.21 0.21 46 1017.0
20260506204105 60 89 3.5 12.2 0.00 0.21 0.21 47 1017.1
20260506204004 60 91 3.5 12.2 0.00 0.21 0.21 47 1017.1
20260506203904 60 90 3.5 12.2 0.00 0.21 0.21 46 1017.1
20260506203804 60 89 2.6 12.2 0.00 0.21 0.21 46 1017.1
20260506203704 60 90 2.6 12.2 0.00 0.21 0.21 46 1017.2
20260506203604 60 88 2.6 12.2 0.00 0.21 0.21 45 1017.2
20260506203504 60 85 2.6 12.2 0.00 0.21 0.21 44 1017.2
20260506203404 60 78 2.6 12.2 0.00 0.21 0.21 45 1017.2
20260506203304 60 71 2.6 12.2 0.00 0.21 0.21 45 1017.2
20260506203104 60 14 2.6 7.0 0.00 0.21 0.21 47 1017.3
20260506203004 60 7 2.6 7.0 0.00 0.21 0.21 46 1017.3
20260506202904 60 358 2.6 7.0 0.00 0.21 0.21 46 1017.2
20260506202804 60 356 2.6 7.0 0.00 0.21 0.21 45 1017.2
20260506202704 60 3 2.6 7.0 0.00 0.21 0.21 46 1017.3
20260506202505 60 14 2.6 7.0 0.00 0.21 0.21 45 1017.3
20260506202404 60 19 2.6 7.0 0.00 0.21 0.21 46 1017.3
20260506202306 60 26 2.6 7.0 0.00 0.21 0.21 45 1017.4
20260506202204 60 36 2.6 7.0 0.00 0.21 0.21 47 1017.4
20260506202004 60 54 2.6 7.0 0.00 0.21 0.21 47 1017.4
20260506201804 59 56 2.6 7.0 0.00 0.21 0.21 48 1017.4
20260506201704 59 52 2.6 7.0 0.00 0.21 0.21 48 1017.3
20260506201604 59 60 2.6 7.0 0.00 0.21 0.21 47 1017.4
20260506201404 59 51 3.5 8.7 0.00 0.21 0.21 46 1017.5
20260506201204 59 31 3.5 8.7 0.00 0.21 0.21 47 1017.6
20260506201104 59 26 3.5 8.7 0.00 0.21 0.21 47 1017.6
20260506201004 59 29 3.5 8.7 0.00 0.21 0.21 47 1017.6
20260506200904 59 30 3.5 8.7 0.00 0.21 0.21 46 1017.6
20260506200704 60 21 2.6 8.7 0.00 0.21 0.21 46 1017.7
20260506200604 60 19 2.6 8.7 0.00 0.21 0.21 46 1017.7
20260506200504 60 14 1.7 7.0 0.00 0.21 0.21 47 1017.7
20260506200404 60 14 1.7 7.0 0.00 0.21 0.21 47 1017.7
20260506200304 60 20 1.7 7.0 0.00 0.21 0.21 46 1017.7
20260506200204 60 46 1.7 6.1 0.00 0.21 0.21 47 1017.7
20260506200004 60 87 1.7 8.7 0.00 0.21 0.21 50 1017.7
20260506195905 60 93 1.7 9.6 0.00 0.21 0.21 49 1017.7
20260506195805 59 100 1.7 9.6 0.00 0.21 0.21 49 1017.7
20260506195705 59 101 2.6 9.6 0.00 0.21 0.21 49 1017.6
20260506195605 59 102 2.6 9.6 0.00 0.21 0.21 47 1017.6
20260506195505 59 101 2.6 9.6 0.00 0.21 0.21 48 1017.8
20260506195405 59 100 2.6 9.6 0.00 0.21 0.21 49 1017.8
20260506195205 59 98 2.6 9.6 0.00 0.21 0.21 48 1017.8
20260506195105 59 97 2.6 9.6 0.00 0.21 0.21 47 1017.8
20260506195005 59 93 1.7 9.6 0.00 0.21 0.21 46 1017.8
20260506194905 59 91 1.7 6.1 0.00 0.21 0.21 48 1017.8
20260506194805 59 88 1.7 6.1 0.00 0.21 0.21 48 1017.7
20260506194705 59 84 1.7 6.1 0.00 0.21 0.21 47 1017.8
20260506194605 59 68 1.7 6.1 0.00 0.21 0.21 47 1017.8
20260506194505 59 57 1.7 4.3 0.00 0.21 0.21 46 1017.8
20260506194405 59 51 1.7 6.1 0.00 0.21 0.21 49 1017.9
20260506194305 59 53 1.7 6.1 0.00 0.21 0.21 46 1017.9
20260506194205 59 49 2.6 6.1 0.00 0.21 0.21 46 1017.9
20260506194105 59 48 2.6 6.1 0.00 0.21 0.21 45 1017.9
20260506193905 59 43 2.6 7.0 0.00 0.21 0.21 46 1018.0
20260506193704 59 33 2.6 7.8 0.00 0.21 0.21 45 1017.9
20260506193605 59 38 2.6 7.8 0.00 0.21 0.21 46 1018.0
20260506193505 59 42 2.6 7.8 0.00 0.21 0.21 47 1018.0
20260506193305 59 39 2.6 8.7 0.00 0.21 0.21 46 1018.0
20260506193205 59 35 2.6 8.7 0.00 0.21 0.21 47 1018.0
20260506193104 59 33 2.6 8.7 0.00 0.21 0.21 51 1018.1
20260506193004 59 33 2.6 8.7 0.00 0.21 0.21 47 1018.0
20260506192905 59 40 2.6 8.7 0.00 0.21 0.21 47 1018.1
20260506192805 59 48 2.6 8.7 0.00 0.21 0.21 46 1018.1
20260506192704 58 59 2.6 8.7 0.00 0.21 0.21 49 1018.0
20260506192604 58 52 2.6 8.7 0.00 0.21 0.21 46 1018.0
20260506192404 58 48 2.6 8.7 0.00 0.21 0.21 45 1018.0
20260506192306 58 57 2.6 7.0 0.00 0.21 0.21 45 1018.1
20260506192204 58 56 3.5 7.0 0.00 0.21 0.21 49 1018.1
20260506192004 58 35 3.5 10.4 0.00 0.21 0.21 47 1018.0
20260506191904 58 23 3.5 10.4 0.00 0.21 0.21 49 1018.0
20260506191805 58 14 3.5 10.4 0.00 0.21 0.21 47 1018.0
20260506191704 58 7 3.5 10.4 0.00 0.21 0.21 47 1018.0
20260506191604 58 9 3.5 10.4 0.00 0.21 0.21 49 1018.0
20260506191504 58 10 3.5 10.4 0.00 0.21 0.21 50 1017.9
20260506191404 58 4 3.5 10.4 0.00 0.21 0.21 49 1017.9
20260506191304 58 6 3.5 10.4 0.00 0.21 0.21 49 1017.9
20260506191205 58 14 3.5 10.4 0.00 0.21 0.21 49 1018.0
20260506191105 58 17 3.5 10.4 0.00 0.21 0.21 48 1018.0
20260506191005 58 17 3.5 9.6 0.00 0.21 0.21 48 1018.0
20260506190905 58 26 3.5 9.6 0.00 0.21 0.21 48 1018.0
20260506190705 58 43 3.5 13.0 0.00 0.21 0.21 48 1018.0
20260506190605 58 50 3.5 13.0 0.00 0.21 0.21 50 1018.0
20260506190505 58 46 3.5 13.0 0.00 0.21 0.21 48 1018.0
20260506190405 58 50 3.5 13.0 0.00 0.21 0.21 49 1017.9
20260506190305 58 50 3.5 13.0 0.00 0.21 0.21 51 1017.9
20260506190205 58 51 3.5 13.0 0.00 0.21 0.21 48 1017.9
20260506190105 58 57 3.5 13.0 0.00 0.21 0.21 48 1017.9
20260506190005 58 64 3.5 13.0 0.00 0.21 0.21 48 1017.8
20260506185905 58 64 3.5 13.0 0.00 0.21 0.21 47 1017.8
20260506185804 58 70 3.5 13.0 0.00 0.21 0.21 46 1017.9
20260506185705 58 70 3.5 9.6 0.00 0.21 0.21 46 1017.8
20260506185604 58 72 3.5 9.6 0.00 0.21 0.21 45 1017.8
20260506185504 58 80 3.5 9.6 0.00 0.21 0.21 47 1017.9
20260506185205 58 85 3.5 9.6 0.00 0.21 0.21 44 1017.8
20260506185104 57 86 3.5 10.4 0.00 0.21 0.21 48 1017.9
20260506185004 57 87 3.5 10.4 0.00 0.21 0.21 47 1017.8
20260506184905 57 84 2.6 10.4 0.00 0.21 0.21 48 1017.8
20260506184804 57 81 2.6 10.4 0.00 0.21 0.21 49 1017.8
20260506184704 57 78 2.6 10.4 0.00 0.21 0.21 48 1017.8
20260506184505 57 61 2.6 10.4 0.00 0.21 0.21 48 1017.9
20260506184404 57 55 3.5 10.4 0.00 0.21 0.21 48 1018.0
20260506184304 57 51 3.5 10.4 0.00 0.21 0.21 47 1017.9
20260506184204 57 50 3.5 10.4 0.00 0.21 0.21 49 1018.0
20260506184104 57 55 3.5 8.7 0.00 0.21 0.21 48 1017.9
20260506184004 57 60 3.5 8.7 0.00 0.21 0.21 47 1017.9
20260506183905 57 64 4.3 12.2 0.00 0.21 0.21 49 1017.9
20260506183804 57 66 4.3 12.2 0.00 0.21 0.21 46 1018.0
20260506183704 57 62 4.3 12.2 0.00 0.21 0.21 48 1018.0
20260506183604 57 63 4.3 12.2 0.00 0.21 0.21 47 1018.0
20260506183504 57 65 4.3 12.2 0.00 0.21 0.21 48 1017.9
20260506183404 57 63 3.5 12.2 0.00 0.21 0.21 48 1018.0
20260506183204 57 57 3.5 12.2 0.00 0.21 0.21 45 1017.9
20260506183104 57 48 3.5 12.2 0.00 0.21 0.21 46 1018.0
20260506183005 57 48 3.5 12.2 0.00 0.21 0.21 46 1018.0
20260506182904 57 40 2.6 9.6 0.00 0.21 0.21 47 1018.0
20260506182804 57 33 2.6 9.6 0.00 0.21 0.21 50 1018.0
20260506182705 57 36 2.6 9.6 0.00 0.21 0.21 50 1018.1
20260506182605 57 45 3.5 9.6 0.00 0.21 0.21 50 1018.1
20260506182404 57 30 3.5 9.6 0.00 0.21 0.21 50 1018.1
20260506182306 57 24 3.5 9.6 0.00 0.21 0.21 49 1018.1
20260506182205 57 32 3.5 9.6 0.00 0.21 0.21 50 1018.1
20260506182105 57 44 3.5 9.6 0.00 0.21 0.21 49 1018.1
20260506182005 57 38 3.5 9.6 0.00 0.21 0.21 49 1018.2
20260506181905 57 42 3.5 9.6 0.00 0.21 0.21 50 1018.2
20260506181805 57 35 3.5 9.6 0.00 0.21 0.21 50 1018.2
20260506181705 57 42 3.5 9.6 0.00 0.21 0.21 50 1018.1
20260506181604 57 40 4.3 9.6 0.00 0.21 0.21 49 1018.2
20260506181504 57 52 4.3 9.6 0.00 0.21 0.21 49 1018.2
20260506181404 57 59 4.3 9.6 0.00 0.21 0.21 50 1018.3
20260506181204 57 67 4.3 12.2 0.00 0.21 0.21 50 1018.4
20260506181104 56 70 5.2 12.2 0.00 0.21 0.21 50 1018.3
20260506181004 56 74 5.2 12.2 0.00 0.21 0.21 51 1018.4
20260506180904 56 76 4.3 12.2 0.00 0.21 0.21 50 1018.4
20260506180704 57 83 4.3 12.2 0.00 0.21 0.21 51 1018.4
20260506180604 56 79 4.3 12.2 0.00 0.21 0.21 51 1018.4